Simultaneous Nadir Overpasses (SNOs) Predictions

Prediction of SNOs between AQUA and GOES-15 Satellite Orbit:

Table of predicted SNOs for the next 14.0 days since TLE Epoch: 3/14/2015
Index Date Time (AQUA) AQUA Lat,Lon GOES-15 Lat,Lon Distance(km) Time Diff (sec)
1 03/14/2015 10:32:41 -0.26,-134.10 -0.01,-135.20 124.45 80
2 03/14/2015 22:54:04 -0.85,-139.29 0.01,-135.17 468.30 80
3 03/16/2015 10:20:28 -0.84,-131.13 -0.01,-135.14 455.23 80
4 03/16/2015 22:41:51 -0.26,-136.32 0.01,-135.11 137.49 80
5 03/18/2015 22:29:38 0.35,-133.35 0.01,-135.05 192.94 80
6 03/19/2015 10:50:53 0.75,-138.50 -0.00,-135.05 393.04 80
7 03/21/2015 10:38:40 0.10,-135.53 -0.01,-134.98 63.11 80
8 03/23/2015 10:26:26 -0.51,-132.56 -0.01,-134.90 266.48 80
9 03/23/2015 22:47:49 -0.63,-137.74 0.00,-134.86 327.52 80
10 03/25/2015 22:35:35 0.01,-134.77 0.00,-134.78 1.90 80
11 03/27/2015 22:23:20 0.62,-131.79 0.00,-134.70 331.00 80




NCC Satellite Simultaneous Nadir Overpasses (SNOs) Prediction Service
